Location: Boiro
(42.6475°N, 8.8834°W)
Time: 19:21:02
(UTC+01:00)

Explorer 7 - Pass Details

Date: 04 December 2021
Orbit: 483 x 674 km, 50.3° (Epoch: 26 January)

Event Time Altitude Azimuth Distance (km) Brightness Sun altitude
Rises 14:35:37 0° 283° (WNW) 2,572 10.3 23.1°
Reaches altitude 10° 14:39:35 10° 241° (WSW) 1,662 10.1 22.9°
Maximum altitude 14:40:17 10° 231° (SW) 1,633 10.4 22.8°
Drops below altitude 10° 14:40:58 10° 220° (SW) 1,656 10.7 22.8°
Sets 14:44:54 0° 178° (S) 2,529 11.4 22.5°
